Voltar ao catálogo

COSMOS 620

AtivoMilitarLEO
NORAD 6988·PAYLOAD·🇷🇺 Russia

Lançado Dec 19, 1973 de Plesetsk Cosmodrome

Loading…

Próximas Passagens (próximas 24 horas)

TLE

AtualizadoSource: Space-Track

Época: Sep 14, 2026, 13:47 UTC

1 06988U 73104D   26257.57436523  .00000005  00000-0  13770-3 0  9999
2 06988  74.0330 338.7769 0021726 158.2189 265.7324 12.47312265401305

Acompanhe COSMOS 620 em tempo real com AllMySat

Download on the App Store